| time (UTC) | temp F | wind direction | speed MPH | gust MPH | rain 1hr in | rain 24hr in | rain mn in | humidity % | barometer mb |
| 20260507223404 | 53 | 92 | 5.0 | 14.0 | 0.00 | 0.37 | 0.02 | 42 | 1002.9 |
| 20260507222904 | 53 | 112 | 2.0 | 8.0 | 0.00 | 0.37 | 0.02 | 42 | 1002.9 |
| 20260507222404 | 53 | 108 | 6.0 | 13.0 | 0.00 | 0.37 | 0.02 | 42 | 1002.8 |
| 20260507221904 | 54 | 88 | 9.0 | 18.0 | 0.00 | 0.37 | 0.02 | 41 | 1002.7 |
| 20260507221404 | 54 | 99 | 0.0 | 7.0 | 0.00 | 0.37 | 0.02 | 42 | 1002.7 |
| 20260507220904 | 54 | 111 | 2.0 | 16.0 | 0.00 | 0.37 | 0.02 | 42 | 1002.6 |
| 20260507220404 | 54 | 73 | 2.0 | 8.0 | 0.00 | 0.37 | 0.02 | 42 | 1002.5 |
| 20260507215404 | 54 | 97 | 3.0 | 13.0 | 0.00 | 0.37 | 0.02 | 40 | 1002.6 |
| 20260507214404 | 55 | 96 | 2.0 | 9.0 | 0.00 | 0.38 | 0.02 | 40 | 1002.6 |
| 20260507213404 | 55 | 74 | 4.0 | 12.0 | 0.00 | 0.38 | 0.02 | 41 | 1002.5 |
| 20260507212905 | 56 | 74 | 4.0 | 12.0 | 0.00 | 0.39 | 0.02 | 39 | 1002.4 |
| 20260507212404 | 57 | 100 | 2.0 | 12.0 | 0.00 | 0.40 | 0.02 | 40 | 1002.3 |
| 20260507211405 | 58 | 66 | 5.0 | 12.0 | 0.00 | 0.41 | 0.02 | 39 | 1002.2 |
| 20260507210904 | 58 | 76 | 2.0 | 13.0 | 0.00 | 0.41 | 0.02 | 37 | 1002.1 |
| 20260507210404 | 58 | 85 | 8.0 | 18.0 | 0.00 | 0.42 | 0.02 | 38 | 1002.1 |
| 20260507205904 | 58 | 63 | 6.0 | 17.0 | 0.00 | 0.42 | 0.02 | 37 | 1002.1 |
| 20260507205404 | 59 | 93 | 5.0 | 15.0 | 0.00 | 0.42 | 0.02 | 37 | 1002.1 |
| 20260507204404 | 59 | 71 | 6.0 | 13.0 | 0.00 | 0.43 | 0.02 | 35 | 1001.9 |
| 20260507203904 | 59 | 66 | 4.0 | 12.0 | 0.00 | 0.44 | 0.02 | 38 | 1001.8 |
| 20260507203404 | 59 | 44 | 1.0 | 10.0 | 0.00 | 0.44 | 0.02 | 39 | 1001.9 |
| 20260507202904 | 58 | 37 | 7.0 | 15.0 | 0.00 | 0.44 | 0.02 | 37 | 1001.8 |
| 20260507202405 | 58 | 63 | 7.0 | 15.0 | 0.00 | 0.45 | 0.02 | 36 | 1001.7 |
| 20260507201904 | 58 | 55 | 4.0 | 12.0 | 0.00 | 0.46 | 0.02 | 38 | 1001.7 |
| 20260507201404 | 58 | 86 | 1.0 | 12.0 | 0.00 | 0.46 | 0.02 | 38 | 1001.7 |
| 20260507195904 | 58 | 38 | 8.0 | 16.0 | 0.00 | 0.47 | 0.02 | 39 | 1001.7 |
| 20260507194405 | 57 | 29 | 2.0 | 8.0 | 0.00 | 0.48 | 0.02 | 43 | 1001.7 |
| 20260507193904 | 57 | 80 | 2.0 | 9.0 | 0.00 | 0.49 | 0.02 | 42 | 1001.8 |
| 20260507193404 | 57 | 16 | 2.0 | 9.0 | 0.00 | 0.50 | 0.02 | 42 | 1001.8 |
| 20260507192904 | 57 | 61 | 2.0 | 8.0 | 0.00 | 0.50 | 0.02 | 42 | 1001.7 |
| 20260507192404 | 58 | 32 | 3.0 | 10.0 | 0.00 | 0.50 | 0.02 | 40 | 1001.7 |
| 20260507191905 | 59 | 45 | 3.0 | 12.0 | 0.00 | 0.51 | 0.02 | 40 | 1001.7 |
| 20260507190904 | 60 | 61 | 6.0 | 15.0 | 0.00 | 0.53 | 0.02 | 38 | 1001.7 |
| 20260507190404 | 60 | 80 | 5.0 | 20.0 | 0.00 | 0.54 | 0.02 | 41 | 1001.6 |
| 20260507185405 | 60 | 82 | 3.0 | 14.0 | 0.00 | 0.64 | 0.02 | 41 | 1001.6 |
| 20260507184904 | 62 | 65 | 3.0 | 8.0 | 0.00 | 0.74 | 0.02 | 44 | 1001.7 |
| 20260507184405 | 61 | 24 | 2.0 | 7.0 | 0.00 | 0.78 | 0.02 | 42 | 1001.7 |
| 20260507183904 | 60 | 34 | 1.0 | 13.0 | 0.00 | 0.78 | 0.02 | 43 | 1001.6 |
| 20260507183404 | 60 | 43 | 3.0 | 12.0 | 0.00 | 0.79 | 0.02 | 44 | 1001.7 |
| 20260507182404 | 59 | 27 | 7.0 | 12.0 | 0.00 | 0.82 | 0.02 | 49 | 1001.8 |
| 20260507180904 | 58 | 54 | 3.0 | 13.0 | 0.00 | 0.85 | 0.02 | 47 | 1002.1 |
| 20260507175905 | 59 | 86 | 3.0 | 10.0 | 0.00 | 0.86 | 0.02 | 45 | 1002.3 |
| 20260507175404 | 59 | 29 | 4.0 | 12.0 | 0.00 | 0.86 | 0.02 | 44 | 1002.3 |
| 20260507174904 | 60 | 55 | 6.0 | 16.0 | 0.00 | 0.86 | 0.02 | 49 | 1002.2 |
| 20260507174404 | 60 | 43 | 7.0 | 15.0 | 0.00 | 0.86 | 0.02 | 54 | 1002.2 |
| 20260507173904 | 59 | 46 | 6.0 | 14.0 | 0.00 | 0.86 | 0.02 | 53 | 1002.2 |
| 20260507173404 | 59 | 61 | 2.0 | 12.0 | 0.00 | 0.86 | 0.02 | 54 | 1002.2 |
| 20260507172904 | 59 | 61 | 3.0 | 14.0 | 0.00 | 0.86 | 0.02 | 54 | 1002.2 |
| 20260507172404 | 60 | 80 | 5.0 | 12.0 | 0.00 | 0.86 | 0.02 | 54 | 1002.3 |
| 20260507171404 | 59 | 68 | 4.0 | 16.0 | 0.00 | 0.86 | 0.02 | 54 | 1002.2 |
| 20260507170404 | 58 | 97 | 3.0 | 12.0 | 0.00 | 0.86 | 0.02 | 56 | 1002.3 |
| 20260507165904 | 58 | 79 | 6.0 | 14.0 | 0.00 | 0.86 | 0.02 | 57 | 1002.4 |
| 20260507165404 | 58 | 22 | 7.0 | 13.0 | 0.00 | 0.86 | 0.02 | 56 | 1002.5 |
| 20260507164904 | 58 | 41 | 3.0 | 12.0 | 0.00 | 0.86 | 0.02 | 55 | 1002.6 |
| 20260507164404 | 58 | 47 | 4.0 | 12.0 | 0.00 | 0.86 | 0.02 | 54 | 1002.6 |
| 20260507163904 | 59 | 70 | 5.0 | 16.0 | 0.00 | 0.86 | 0.02 | 54 | 1002.7 |
| 20260507163404 | 59 | 55 | 6.0 | 16.0 | 0.00 | 0.86 | 0.02 | 58 | 1002.7 |
| 20260507162904 | 57 | 120 | 2.0 | 12.0 | 0.00 | 0.86 | 0.02 | 57 | 1002.6 |
| 20260507162404 | 57 | 97 | 2.0 | 8.0 | 0.00 | 0.86 | 0.02 | 57 | 1002.7 |
| 20260507160903 | 57 | 50 | 2.0 | 12.0 | 0.00 | 0.86 | 0.02 | 58 | 1002.8 |
| 20260507160404 | 58 | 51 | 3.0 | 15.0 | 0.00 | 0.86 | 0.02 | 57 | 1002.8 |
| 20260507155904 | 58 | 99 | 6.0 | 16.0 | 0.00 | 0.86 | 0.02 | 56 | 1002.8 |
| 20260507155404 | 57 | 31 | 5.0 | 12.0 | 0.00 | 0.86 | 0.02 | 60 | 1002.8 |
| 20260507154903 | 57 | 63 | 6.0 | 12.0 | 0.00 | 0.86 | 0.02 | 59 | 1003.0 |
| 20260507154404 | 58 | 74 | 5.0 | 13.0 | 0.00 | 0.86 | 0.02 | 60 | 1003.1 |
| 20260507153904 | 58 | 91 | 3.0 | 12.0 | 0.00 | 0.86 | 0.02 | 62 | 1003.1 |
| 20260507153404 | 57 | 82 | 3.0 | 8.0 | 0.00 | 0.86 | 0.02 | 62 | 1003.2 |
| 20260507152905 | 57 | 55 | 5.0 | 12.0 | 0.00 | 0.86 | 0.02 | 62 | 1003.3 |
| 20260507152404 | 57 | 58 | 5.0 | 14.0 | 0.00 | 0.86 | 0.02 | 63 | 1003.3 |
| 20260507151904 | 57 | 67 | 1.0 | 8.0 | 0.00 | 0.86 | 0.02 | 66 | 1003.3 |
| 20260507150904 | 58 | 88 | 4.0 | 15.0 | 0.00 | 0.86 | 0.02 | 60 | 1003.2 |
| 20260507150404 | 58 | 103 | 9.0 | 16.0 | 0.00 | 0.86 | 0.02 | 63 | 1003.1 |
| 20260507145904 | 57 | 124 | 4.0 | 12.0 | 0.00 | 0.86 | 0.02 | 66 | 1003.1 |
| 20260507145404 | 56 | 78 | 6.0 | 14.0 | 0.00 | 0.86 | 0.02 | 63 | 1003.1 |
| 20260507144904 | 57 | 112 | 5.0 | 12.0 | 0.00 | 0.86 | 0.02 | 64 | 1003.2 |
| 20260507144404 | 57 | 93 | 6.0 | 10.0 | 0.00 | 0.86 | 0.02 | 63 | 1003.3 |
| 20260507143905 | 57 | 115 | 5.0 | 12.0 | 0.00 | 0.86 | 0.02 | 62 | 1003.3 |
| 20260507143404 | 57 | 106 | 6.0 | 13.0 | 0.00 | 0.86 | 0.02 | 62 | 1003.3 |
| 20260507142404 | 56 | 73 | 5.0 | 13.0 | 0.00 | 0.86 | 0.02 | 64 | 1003.4 |
| 20260507141404 | 55 | 91 | 5.0 | 12.0 | 0.00 | 0.86 | 0.02 | 65 | 1003.5 |
| 20260507140904 | 54 | 66 | 7.0 | 12.0 | 0.00 | 0.86 | 0.02 | 67 | 1003.6 |
| 20260507140404 | 54 | 78 | 1.0 | 7.0 | 0.00 | 0.86 | 0.02 | 67 | 1003.6 |
| 20260507135904 | 54 | 60 | 6.0 | 16.0 | 0.00 | 0.86 | 0.02 | 65 | 1003.6 |
| 20260507134904 | 55 | 72 | 3.0 | 13.0 | 0.00 | 0.86 | 0.02 | 66 | 1003.7 |
| 20260507134404 | 55 | 66 | 6.0 | 10.0 | 0.00 | 0.86 | 0.02 | 67 | 1003.6 |
| 20260507133904 | 55 | 69 | 2.0 | 12.0 | 0.00 | 0.86 | 0.02 | 68 | 1003.6 |
| 20260507133404 | 55 | 71 | 2.0 | 13.0 | 0.00 | 0.86 | 0.02 | 69 | 1003.6 |
| 20260507132905 | 54 | 93 | 3.0 | 12.0 | 0.00 | 0.86 | 0.02 | 69 | 1003.9 |
| 20260507132404 | 54 | 88 | 5.0 | 12.0 | 0.00 | 0.86 | 0.02 | 70 | 1003.9 |
| 20260507131404 | 53 | 69 | 5.0 | 13.0 | 0.00 | 0.86 | 0.02 | 70 | 1003.8 |
| 20260507130904 | 53 | 67 | 7.0 | 14.0 | 0.00 | 0.86 | 0.02 | 71 | 1003.9 |
| 20260507130403 | 53 | 80 | 9.0 | 17.0 | 0.00 | 0.86 | 0.02 | 70 | 1004.0 |
| 20260507125904 | 53 | 32 | 3.0 | 12.0 | 0.00 | 0.86 | 0.02 | 71 | 1004.0 |
| 20260507125404 | 52 | 55 | 6.0 | 14.0 | 0.00 | 0.86 | 0.02 | 73 | 1004.0 |
| 20260507124903 | 52 | 68 | 7.0 | 12.0 | 0.00 | 0.86 | 0.02 | 73 | 1004.0 |
| 20260507123904 | 52 | 63 | 6.0 | 12.0 | 0.00 | 0.86 | 0.02 | 73 | 1004.0 |
| 20260507123404 | 52 | 81 | 4.0 | 10.0 | 0.00 | 0.86 | 0.02 | 75 | 1004.1 |
| 20260507122904 | 52 | 63 | 3.0 | 12.0 | 0.00 | 0.86 | 0.02 | 75 | 1004.2 |
| 20260507122404 | 51 | 42 | 5.0 | 16.0 | 0.00 | 0.86 | 0.02 | 76 | 1004.2 |
| 20260507121904 | 51 | 59 | 2.0 | 9.0 | 0.00 | 0.86 | 0.02 | 77 | 1004.1 |
| 20260507121404 | 51 | 52 | 2.0 | 8.0 | 0.00 | 0.86 | 0.02 | 76 | 1004.1 |
| 20260507120903 | 51 | 83 | 1.0 | 5.0 | 0.00 | 0.86 | 0.02 | 80 | 1004.2 |
| 20260507120404 | 50 | 83 | 0.0 | 8.0 | 0.00 | 0.86 | 0.02 | 79 | 1004.3 |
| 20260507115904 | 50 | 52 | 0.0 | 3.0 | 0.00 | 0.86 | 0.02 | 80 | 1004.4 |
| 20260507115404 | 50 | 53 | 2.0 | 6.0 | 0.00 | 0.86 | 0.02 | 79 | 1004.4 |
| 20260507114904 | 49 | 71 | 3.0 | 8.0 | 0.00 | 0.86 | 0.02 | 79 | 1004.4 |
| 20260507114404 | 49 | 59 | 3.0 | 10.0 | 0.00 | 0.86 | 0.02 | 81 | 1004.6 |
| 20260507113904 | 48 | 69 | 0.0 | 10.0 | 0.00 | 0.86 | 0.02 | 83 | 1004.7 |
| 20260507112904 | 46 | 57 | 0.0 | 0.0 | 0.00 | 0.86 | 0.02 | 82 | 1004.7 |
| 20260507112404 | 47 | 57 | 0.0 | 5.0 | 0.00 | 0.86 | 0.02 | 83 | 1004.5 |
| 20260507111905 | 47 | 57 | 0.0 | 0.0 | 0.00 | 0.86 | 0.02 | 84 | 1004.5 |
| 20260507111404 | 46 | 65 | 0.0 | 0.0 | 0.00 | 0.86 | 0.02 | 85 | 1004.5 |
| 20260507110904 | 46 | 103 | 0.0 | 0.0 | 0.00 | 0.86 | 0.02 | 85 | 1004.6 |
| 20260507110404 | 46 | 103 | 0.0 | 0.0 | 0.00 | 0.86 | 0.02 | 84 | 1004.7 |
| 20260507105904 | 46 | 103 | 0.0 | 0.0 | 0.00 | 0.86 | 0.02 | 85 | 1004.7 |
| 20260507105404 | 46 | 103 | 0.0 | 0.0 | 0.00 | 0.86 | 0.02 | 86 | 1004.8 |
| 20260507104904 | 46 | 103 | 0.0 | 0.0 | 0.00 | 0.86 | 0.02 | 86 | 1004.8 |
| 20260507104404 | 46 | 103 | 0.0 | 0.0 | 0.00 | 0.86 | 0.02 | 87 | 1004.7 |
| 20260507103904 | 46 | 103 | 0.0 | 0.0 | 0.00 | 0.86 | 0.02 | 88 | 1004.6 |
| 20260507103405 | 45 | 103 | 0.0 | 0.0 | 0.00 | 0.86 | 0.02 | 89 | 1004.5 |
| 20260507102404 | 45 | 103 | 0.0 | 0.0 | 0.00 | 0.86 | 0.02 | 88 | 1004.2 |
| 20260507101904 | 44 | 103 | 0.0 | 0.0 | 0.00 | 0.86 | 0.02 | 88 | 1004.2 |
| 20260507100905 | 44 | 103 | 0.0 | 0.0 | 0.00 | 0.86 | 0.02 | 88 | 1004.3 |
| 20260507095404 | 44 | 103 | 0.0 | 0.0 | 0.00 | 0.86 | 0.02 | 90 | 1004.2 |
| 20260507094904 | 44 | 103 | 0.0 | 0.0 | 0.00 | 0.86 | 0.02 | 91 | 1004.0 |
| 20260507094405 | 44 | 103 | 0.0 | 0.0 | 0.00 | 0.86 | 0.02 | 91 | 1003.9 |
| 20260507093904 | 44 | 103 | 0.0 | 0.0 | 0.00 | 0.86 | 0.02 | 91 | 1003.9 |
| 20260507093404 | 44 | 103 | 0.0 | 0.0 | 0.00 | 0.86 | 0.02 | 91 | 1004.0 |
| 20260507092904 | 44 | 103 | 0.0 | 0.0 | 0.00 | 0.86 | 0.02 | 91 | 1004.0 |
| 20260507092404 | 44 | 103 | 0.0 | 0.0 | 0.00 | 0.86 | 0.02 | 91 | 1004.0 |
| 20260507090904 | 44 | 103 | 0.0 | 0.0 | 0.00 | 0.86 | 0.02 | 92 | 1004.1 |
| 20260507090404 | 44 | 103 | 0.0 | 0.0 | 0.00 | 0.86 | 0.02 | 92 | 1004.1 |
| 20260507085904 | 44 | 103 | 0.0 | 0.0 | 0.00 | 0.86 | 0.02 | 92 | 1004.1 |
| 20260507085404 | 44 | 103 | 0.0 | 0.0 | 0.00 | 0.86 | 0.02 | 92 | 1004.2 |
| 20260507084904 | 44 | 103 | 0.0 | 0.0 | 0.00 | 0.86 | 0.02 | 92 | 1004.4 |
| 20260507084404 | 44 | 103 | 0.0 | 0.0 | 0.00 | 0.86 | 0.02 | 92 | 1004.3 |
| 20260507083904 | 44 | 103 | 0.0 | 0.0 | 0.00 | 0.86 | 0.02 | 91 | 1004.2 |
| 20260507083404 | 44 | 103 | 0.0 | 0.0 | 0.00 | 0.86 | 0.02 | 92 | 1003.9 |
| 20260507082404 | 44 | 103 | 0.0 | 0.0 | 0.00 | 0.86 | 0.02 | 92 | 1003.5 |
| 20260507081405 | 45 | 103 | 0.0 | 0.0 | 0.00 | 0.86 | 0.02 | 91 | 1003.5 |
| 20260507080904 | 45 | 85 | 0.0 | 0.0 | 0.00 | 0.86 | 0.02 | 91 | 1003.5 |
| 20260507075904 | 45 | 85 | 0.0 | 0.0 | 0.00 | 0.86 | 0.02 | 90 | 1003.7 |
| 20260507074904 | 45 | 85 | 0.0 | 0.0 | 0.00 | 0.86 | 0.02 | 91 | 1003.9 |
| 20260507073904 | 45 | 70 | 0.0 | 0.0 | 0.00 | 0.86 | 0.02 | 91 | 1004.1 |
| 20260507073404 | 45 | 69 | 1.0 | 8.0 | 0.00 | 0.86 | 0.02 | 91 | 1003.8 |
| 20260507072904 | 45 | 67 | 0.0 | 3.0 | 0.00 | 0.86 | 0.02 | 92 | 1003.7 |
| 20260507072404 | 45 | 71 | 1.0 | 8.0 | 0.00 | 0.86 | 0.02 | 92 | 1003.9 |
| 20260507071404 | 45 | 102 | 0.0 | 8.0 | 0.00 | 0.86 | 0.02 | 91 | 1003.7 |
| 20260507070904 | 45 | 110 | 3.0 | 12.0 | 0.00 | 0.86 | 0.02 | 91 | 1003.4 |
| 20260507065904 | 45 | 88 | 5.0 | 9.0 | 0.00 | 0.86 | 0.02 | 91 | 1003.2 |
| 20260507065404 | 45 | 74 | 1.0 | 10.0 | 0.00 | 0.86 | 0.02 | 91 | 1003.5 |
| 20260507064905 | 45 | 81 | 3.0 | 10.0 | 0.00 | 0.86 | 0.02 | 91 | 1003.6 |
| 20260507064404 | 46 | 73 | 3.0 | 12.0 | 0.00 | 0.86 | 0.02 | 91 | 1003.3 |
| 20260507063904 | 46 | 85 | 6.0 | 12.0 | 0.00 | 0.86 | 0.02 | 92 | 1003.1 |
| 20260507063404 | 46 | 65 | 3.0 | 12.0 | 0.00 | 0.86 | 0.02 | 92 | 1003.2 |
| 20260507062904 | 46 | 92 | 2.0 | 8.0 | 0.00 | 0.86 | 0.02 | 92 | 1003.1 |
| 20260507062404 | 46 | 78 | 5.0 | 17.0 | 0.00 | 0.86 | 0.02 | 93 | 1003.0 |
| 20260507061904 | 46 | 101 | 2.0 | 8.0 | 0.00 | 0.86 | 0.02 | 93 | 1003.2 |
| 20260507061404 | 46 | 97 | 1.0 | 12.0 | 0.00 | 0.86 | 0.02 | 93 | 1003.0 |
| 20260507060904 | 46 | 83 | 0.0 | 9.0 | 0.00 | 0.86 | 0.02 | 94 | 1003.1 |
| 20260507055904 | 46 | 82 | 2.0 | 8.0 | 0.00 | 0.86 | 0.02 | 94 | 1003.0 |
| 20260507055404 | 46 | 85 | 2.0 | 9.0 | 0.00 | 0.86 | 0.02 | 94 | 1002.9 |
| 20260507054904 | 47 | 85 | 3.0 | 9.0 | 0.00 | 0.86 | 0.02 | 94 | 1002.7 |
| 20260507054403 | 46 | 79 | 1.0 | 10.0 | 0.00 | 0.86 | 0.02 | 95 | 1002.5 |
| 20260507053904 | 47 | 107 | 0.0 | 0.0 | 0.00 | 0.86 | 0.02 | 95 | 1002.8 |
| 20260507053404 | 47 | 107 | 0.0 | 0.0 | 0.00 | 0.86 | 0.02 | 95 | 1002.7 |
| 20260507052904 | 47 | 107 | 0.0 | 0.0 | 0.00 | 0.86 | 0.02 | 95 | 1002.8 |
| 20260507052404 | 47 | 107 | 0.0 | 0.0 | 0.01 | 0.86 | 0.02 | 95 | 1002.3 |
| 20260507051904 | 47 | 107 | 0.0 | 0.0 | 0.01 | 0.86 | 0.02 | 94 | 1002.7 |
| 20260507050904 | 47 | 107 | 2.0 | 7.0 | 0.02 | 0.86 | 0.02 | 94 | 1002.8 |
| 20260507050404 | 47 | 107 | 3.0 | 9.0 | 0.02 | 0.86 | 0.02 | 94 | 1002.7 |
| 20260507045904 | 47 | 80 | 3.0 | 9.0 | 0.02 | 0.86 | 0.02 | 94 | 1002.8 |
| 20260507045404 | 47 | 117 | 0.0 | 0.0 | 0.02 | 0.86 | 0.02 | 94 | 1003.0 |
| 20260507044904 | 47 | 117 | 0.0 | 0.0 | 0.02 | 0.86 | 0.02 | 94 | 1002.9 |
| 20260507044404 | 47 | 117 | 1.0 | 9.0 | 0.02 | 0.86 | 0.02 | 94 | 1002.7 |
| 20260507043904 | 47 | 115 | 5.0 | 12.0 | 0.03 | 0.86 | 0.02 | 94 | 1002.8 |
| 20260507043404 | 47 | 80 | 3.0 | 10.0 | 0.03 | 0.86 | 0.02 | 94 | 1003.1 |
| 20260507041904 | 48 | 86 | 1.0 | 12.0 | 0.03 | 0.85 | 0.01 | 94 | 1003.1 |
| 20260507041404 | 48 | 71 | 3.0 | 14.0 | 0.02 | 0.84 | 0.00 | 94 | 1003.0 |
| 20260507040904 | 48 | 73 | 6.0 | 12.0 | 0.02 | 0.84 | 0.00 | 94 | 1003.1 |
| 20260507040404 | 48 | 80 | 5.0 | 12.0 | 0.03 | 0.84 | 0.00 | 94 | 1003.1 |
| 20260507035904 | 48 | 97 | 2.0 | 14.0 | 0.03 | 0.84 | 0.84 | 94 | 1003.0 |
| 20260507035404 | 48 | 106 | 7.0 | 15.0 | 0.04 | 0.84 | 0.84 | 94 | 1002.9 |
| 20260507034904 | 49 | 91 | 5.0 | 14.0 | 0.04 | 0.84 | 0.84 | 94 | 1002.8 |
| 20260507033904 | 49 | 63 | 3.0 | 12.0 | 0.05 | 0.83 | 0.83 | 94 | 1002.8 |
| 20260507033404 | 49 | 93 | 7.0 | 16.0 | 0.05 | 0.83 | 0.83 | 94 | 1002.4 |
| 20260507032903 | 49 | 79 | 5.0 | 13.0 | 0.05 | 0.83 | 0.83 | 94 | 1002.8 |
| 20260507031904 | 49 | 72 | 6.0 | 13.0 | 0.04 | 0.82 | 0.82 | 94 | 1002.6 |
| 20260507030904 | 50 | 79 | 3.0 | 14.0 | 0.05 | 0.82 | 0.82 | 95 | 1002.5 |
| 20260507030404 | 50 | 110 | 4.0 | 13.0 | 0.04 | 0.81 | 0.81 | 95 | 1002.4 |
| 20260507025404 | 51 | 92 | 4.0 | 12.0 | 0.03 | 0.80 | 0.80 | 95 | 1002.5 |
| 20260507024904 | 51 | 88 | 3.0 | 12.0 | 0.03 | 0.80 | 0.80 | 95 | 1002.3 |
| 20260507024404 | 51 | 88 | 6.0 | 13.0 | 0.02 | 0.79 | 0.79 | 95 | 1002.3 |
| 20260507023904 | 52 | 91 | 7.0 | 12.0 | 0.01 | 0.78 | 0.78 | 95 | 1002.4 |
| 20260507022404 | 53 | 90 | 0.0 | 0.0 | 0.02 | 0.78 | 0.78 | 96 | 1002.1 |
| 20260507021404 | 53 | 90 | 0.0 | 0.0 | 0.02 | 0.78 | 0.78 | 96 | 1002.0 |
| 20260507020904 | 53 | 90 | 0.0 | 0.0 | 0.01 | 0.77 | 0.77 | 96 | 1001.9 |
| 20260507020404 | 53 | 90 | 0.0 | 0.0 | 0.02 | 0.77 | 0.77 | 96 | 1001.9 |
| 20260507015404 | 54 | 90 | 0.0 | 0.0 | 0.03 | 0.77 | 0.77 | 96 | 1001.9 |
| 20260507014904 | 54 | 90 | 0.0 | 0.0 | 0.04 | 0.77 | 0.77 | 96 | 1002.0 |
| 20260507014404 | 54 | 90 | 0.0 | 0.0 | 0.05 | 0.77 | 0.77 | 96 | 1001.9 |
| 20260507013904 | 54 | 90 | 0.0 | 0.0 | 0.06 | 0.77 | 0.77 | 96 | 1001.8 |
| 20260507012904 | 54 | 90 | 0.0 | 0.0 | 0.13 | 0.77 | 0.77 | 96 | 1001.9 |
| 20260507012404 | 54 | 90 | 1.0 | 8.0 | 0.16 | 0.76 | 0.76 | 96 | 1001.8 |
| 20260507011404 | 54 | 90 | 1.0 | 8.0 | 0.18 | 0.76 | 0.76 | 96 | 1002.0 |
| 20260507010904 | 54 | 90 | 3.0 | 9.0 | 0.20 | 0.76 | 0.76 | 96 | 1001.9 |
| 20260507010404 | 55 | 93 | 2.0 | 8.0 | 0.19 | 0.75 | 0.75 | 96 | 1001.8 |
| 20260507005404 | 56 | 101 | 0.0 | 0.0 | 0.20 | 0.74 | 0.74 | 96 | 1001.8 |
| 20260507004904 | 56 | 101 | 0.0 | 0.0 | 0.19 | 0.73 | 0.73 | 96 | 1001.7 |
| 20260507004405 | 56 | 101 | 0.0 | 0.0 | 0.19 | 0.72 | 0.72 | 96 | 1001.6 |
| 20260507003904 | 56 | 101 | 1.0 | 8.0 | 0.19 | 0.71 | 0.71 | 96 | 1001.6 |
| 20260507002404 | 57 | 341 | 1.0 | 5.0 | 0.09 | 0.60 | 0.60 | 96 | 1001.4 |
| 20260507001904 | 57 | 284 | 0.0 | 0.0 | 0.09 | 0.59 | 0.59 | 96 | 1001.2 |
| 20260507001405 | 57 | 284 | 0.0 | 0.0 | 0.08 | 0.58 | 0.58 | 96 | 1001.0 |
| 20260507000904 | 57 | 284 | 0.0 | 0.0 | 0.06 | 0.56 | 0.56 | 96 | 1001.0 |
| 20260507000405 | 57 | 284 | 1.0 | 7.0 | 0.06 | 0.56 | 0.56 | 96 | 1001.0 |
| 20260506235904 | 57 | 284 | 0.0 | 0.0 | 0.05 | 0.55 | 0.55 | 96 | 1001.0 |
| 20260506235404 | 57 | 284 | 0.0 | 0.0 | 0.05 | 0.54 | 0.54 | 96 | 1000.9 |
| 20260506234905 | 57 | 284 | 0.0 | 0.0 | 0.05 | 0.54 | 0.54 | 96 | 1000.9 |
| 20260506234404 | 57 | 284 | 1.0 | 9.0 | 0.04 | 0.53 | 0.53 | 96 | 1000.9 |
| 20260506233904 | 58 | 286 | 3.0 | 13.0 | 0.03 | 0.52 | 0.52 | 96 | 1001.0 |
| 20260506233404 | 58 | 275 | 2.0 | 12.0 | 0.03 | 0.52 | 0.52 | 96 | 1001.0 |
| 20260506232404 | 58 | 275 | 0.0 | 0.0 | 0.02 | 0.52 | 0.51 | 95 | 1001.1 |
| 20260506231904 | 58 | 275 | 1.0 | 6.0 | 0.01 | 0.51 | 0.50 | 95 | 1001.2 |
| 20260506231404 | 58 | 275 | 3.0 | 9.0 | 0.01 | 0.51 | 0.50 | 95 | 1001.2 |
| 20260506230904 | 59 | 275 | 5.0 | 10.0 | 0.01 | 0.51 | 0.50 | 95 | 1001.2 |
| 20260506230404 | 59 | 293 | 0.0 | 3.0 | 0.01 | 0.51 | 0.50 | 95 | 1001.3 |
| 20260506224905 | 59 | 282 | 1.0 | 6.0 | 0.00 | 0.51 | 0.49 | 95 | 1001.3 |
| 20260506223905 | 60 | 282 | 3.0 | 10.0 | 0.01 | 0.52 | 0.49 | 95 | 1001.5 |